Weather Roundup
Issued by NWS Chicago, IL

Home | Current Version | Previous Version | Graphics & Text | Print | Product List | Glossary On
Versions: 1 2 3 4 5 6 7 8 9 10 11 12 13 14 15 16 17 18 19 20 21 22 23 24 25 26 27 28 29 30 31 32 33 34 35 36 37 38 39 40 41 42 43 44 45 46 47 48 49 50
000
NZUS59 KLOT 041212
HRRLOT

CHICAGO AREA WEATHER ROUNDUP
NATIONAL WEATHER SERVICE CHICAGO/ROMEOVILLE IL
700 AM CDT FRI SEP 04 2015

NOTE: "FAIR" INDICATES FEW OR NO CLOUDS BELOW 12,000 FEET WITH NO
SIGNIFICANT WEATHER AND/OR OBSTRUCTIONS TO VISIBILITY.

* THESE STATIONS ARE NOT UNDER NWS QUALITY CONTROL. THEY ALSO MAY NOT
  REPORT WEATHER SUCH AS PRECIPITATION OR FOG.

ILZ005-006-012>014-019>023-041300-
NORTHEAST ILLINOIS

CITY           SKY/WX    TMP DP  RH WIND       PRES   REMARKS
OHARE          PTCLDY    69  66  90 CALM      29.99R
6HR MIN TEMP:  68; 6HR MAX TEMP:  71;

MIDWAY         PTCLDY    72  66  81 CALM      29.99R
6HR MIN TEMP:  72; 6HR MAX TEMP:  74;

AURORA         CLEAR     66  64  93 CALM      30.00R FOG
6HR MIN TEMP:  65; 6HR MAX TEMP:  71;

LANSING*       CLEAR     66  66  99 CALM      30.00R FOG
JOLIET*        CLEAR     67  67  98 CALM      30.00R
WAUKEGAN       MOCLDY    66  65  96 NE3       30.00R FOG
6HR MIN TEMP:  65; 6HR MAX TEMP:  68;

DUPAGE AIRPORT PTCLDY    67  64  90 CALM      30.00R
6HR MIN TEMP:  66; 6HR MAX TEMP:  71;

WHEELING       CLEAR     68  65  90 CALM      30.01R
6HR MIN TEMP:  67; 6HR MAX TEMP:  69;

KANKAKEE*      CLEAR     66  66  99 CALM      30.01R FOG
MORRIS*          N/A     67  66  96 E3        29.99R FOG
LEWIS AIRPORT* CLEAR     67  67  99 CALM      30.00R FOG
NORTHERLY IS     N/A     68  66  93 MISG        N/A
$$

WIZ051-052-058>065-066-070>072-041300-
SOUTHEAST WISCONSIN

CITY           SKY/WX    TMP DP  RH WIND       PRES   REMARKS
MILWAUKEE      FOG       65  64  97 N5        30.00R VSB 1/2
6HR MIN TEMP:  64; 6HR MAX TEMP:  68;

KENOSHA*       PTCLDY    65  63  93 CALM      30.01R FOG
RACINE*        FOG       64  63  96 N7        30.02R VSB 1/2
BURLINGTON     MOCLDY    64  64  99 CALM      30.00R FOG
WAUKESHA       CLOUDY    63  63 100 NE5       30.02R FOG
WEST BEND      CLOUDY    63  63 100 CALM      30.01S FOG
$$

INZ001>003-010>013-019-020-041300-
NORTHWEST INDIANA

CITY           SKY/WX    TMP DP  RH WIND       PRES   REMARKS
GARY*          MOCLDY    68  66  94 CALM      30.01R
MICHIGAN CITY* NOT AVBL
RENSSELAER*    NOT AVBL
VALPARAISO     CLEAR     67  65  93 CALM      30.01R FOG
$$

LMZ740>746-041300-
SOUTHERN LAKE MICHIGAN

STATION/POSITION TIME  SKY/WX   TEMP WIND        PRES    VSBY
                                AIR  DIR/SP/G
                 (UTC)          (F)  (DEG/KT/KT) (MB)    (MI)
HARRISON CRIB    1200            69  360/  7/  8   N/A
BURNHAM HARBOR   1200            68   20/  5/  7   N/A
CALUMET HARBOR   1100            69  350/  2/  3   N/A
BURNS HARBOR     1100            72   40/  5/  6 1015.9R
MICHIGAN CITY    1100            70   10/  6/  7   N/A
$$

ABBREVIATIONS USED IN REMARKS
   TC - TEMPERATURE IN CELSIUS
  WCI - WIND CHILL INDEX
   HX - HEAT INDEX
  VSB - VISIBILITY
$$



USA.gov is the U.S. government's official web portal to all federal, state and local government web resources and services.